When you browse on this site, cookies collect data to enhance your experience and personalize the content and advertising you see.
Visit our Privacy Policy to learn more. By continuing to use the site, you agree to this use of cookies and data.
  • en Belgique
  • Liste des pays
  • À 7 jours
  • Température de l'eau
  • Carte météo
  • Widgets météo
  • user-avatar
    Se connecter

    Météo par heure à Lopastino

    Ce jour, 29 Mai, Vendredi

    Heure Température Précipitation Vent Pression Humidité
    00:00 +11°C° 0.2 mm 1 m/s 750 mmHg 93%
    01:00 +11°C° 0.2 mm 1 m/s 750 mmHg 94%
    02:00 +11°C° 0 mm 1 m/s 750 mmHg 94%
    03:00 +11°C° 0 mm 1 m/s 750 mmHg 94%
    04:00 +11°C° 0 mm 1 m/s 750 mmHg 94%
    05:00 +12°C° 0 mm 1 m/s 749 mmHg 93%
    06:00 +12°C° 0 mm 1 m/s 750 mmHg 91%
    07:00 +13°C° 0 mm 2 m/s 750 mmHg 90%
    08:00 +14°C° 0 mm 2 m/s 750 mmHg 87%
    09:00 +15°C° 0.4 mm 2 m/s 750 mmHg 83%
    10:00 +17°C° 0.4 mm 2 m/s 750 mmHg 78%
    11:00 +18°C° 0.4 mm 2 m/s 749 mmHg 74%
    12:00 +17°C° 0.6 mm 2 m/s 749 mmHg 78%
    13:00 +16°C° 0.6 mm 2 m/s 749 mmHg 82%
    14:00 +16°C° 0 mm 1 m/s 750 mmHg 85%
    15:00 +16°C° 0.2 mm 1 m/s 749 mmHg 85%
    16:00 +16°C° 0.2 mm 1 m/s 749 mmHg 85%
    17:00 +16°C° 0.2 mm 1 m/s 749 mmHg 85%
    18:00 +15°C° 0 mm 1 m/s 749 mmHg 87%
    19:00 +14°C° 0 mm 1 m/s 749 mmHg 90%
    20:00 +13°C° 0 mm 1 m/s 749 mmHg 93%
    21:00 +12°C° 0 mm 1 m/s 749 mmHg 94%
    22:00 +11°C° 0 mm 1 m/s 749 mmHg 95%
    23:00 +11°C° 0 mm 1 m/s 749 mmHg 96%

    Demain, 30 Mai, Samedi

    Heure Température Précipitation Vent Pression Humidité
    00:00 +10°C° 0 mm 1 m/s 749 mmHg 96%
    01:00 +10°C° 0 mm 1 m/s 749 mmHg 97%
    02:00 +9°C° 0 mm 2 m/s 749 mmHg 97%
    03:00 +9°C° 0 mm 2 m/s 749 mmHg 96%
    04:00 +10°C° 0 mm 3 m/s 749 mmHg 95%
    05:00 +10°C° 0 mm 3 m/s 749 mmHg 94%
    06:00 +12°C° 0 mm 3 m/s 749 mmHg 89%
    07:00 +13°C° 0 mm 4 m/s 749 mmHg 83%
    08:00 +14°C° 0 mm 4 m/s 750 mmHg 78%
    09:00 +15°C° 0 mm 4 m/s 749 mmHg 72%
    10:00 +16°C° 0 mm 5 m/s 749 mmHg 67%
    11:00 +19°C° 0 mm 5 m/s 749 mmHg 61%
    12:00 +19°C° 0 mm 5 m/s 749 mmHg 59%
    13:00 +19°C° 0 mm 5 m/s 749 mmHg 56%
    14:00 +20°C° 0 mm 5 m/s 749 mmHg 54%
    15:00 +19°C° 0 mm 5 m/s 749 mmHg 54%
    16:00 +19°C° 0 mm 5 m/s 749 mmHg 54%
    17:00 +19°C° 0 mm 5 m/s 748 mmHg 54%
    18:00 +16°C° 0 mm 5 m/s 748 mmHg 57%
    19:00 +15°C° 0 mm 5 m/s 748 mmHg 60%
    20:00 +13°C° 0 mm 5 m/s 748 mmHg 63%
    21:00 +12°C° 0 mm 4 m/s 748 mmHg 64%
    22:00 +12°C° 0 mm 4 m/s 748 mmHg 65%
    23:00 +11°C° 0 mm 4 m/s 748 mmHg 66%

    Après-demain, 31 Mai, Dimanche

    Heure Température Précipitation Vent Pression Humidité
    00:00 +10°C° 0 mm 4 m/s 748 mmHg 67%
    01:00 +9°C° 0 mm 5 m/s 748 mmHg 68%
    02:00 +9°C° 0 mm 5 m/s 748 mmHg 70%
    03:00 +8°C° 0 mm 5 m/s 748 mmHg 71%
    04:00 +8°C° 0 mm 5 m/s 748 mmHg 72%
    05:00 +8°C° 0 mm 6 m/s 748 mmHg 73%
    06:00 +9°C° 0 mm 6 m/s 748 mmHg 68%
    07:00 +10°C° 0 mm 6 m/s 748 mmHg 63%
    08:00 +11°C° 0 mm 6 m/s 748 mmHg 58%
    09:00 +11°C° 0 mm 6 m/s 748 mmHg 56%
    10:00 +13°C° 0 mm 6 m/s 748 mmHg 54%
    11:00 +12°C° 0 mm 7 m/s 748 mmHg 52%
    12:00 +11°C° 0 mm 6 m/s 748 mmHg 53%
    13:00 +11°C° 0 mm 6 m/s 748 mmHg 54%
    14:00 +10°C° 0 mm 6 m/s 748 mmHg 55%
    15:00 +10°C° 0 mm 6 m/s 748 mmHg 53%
    16:00 +10°C° 0 mm 6 m/s 748 mmHg 52%
    17:00 +11°C° 0 mm 6 m/s 748 mmHg 50%
    18:00 +9°C° 0 mm 5 m/s 748 mmHg 54%
    19:00 +8°C° 0 mm 4 m/s 749 mmHg 59%
    20:00 +7°C° 0 mm 4 m/s 749 mmHg 63%
    21:00 +6°C° 0 mm 4 m/s 749 mmHg 65%
    22:00 +5°C° 0 mm 4 m/s 749 mmHg 66%
    23:00 +4°C° 0 mm 4 m/s 749 mmHg 67%

    1 Juin, Lundi

    Heure Température Précipitation Vent Pression Humidité
    00:00 +4°C° 0 mm 3 m/s 749 mmHg 68%
    01:00 +4°C° 0 mm 3 m/s 749 mmHg 70%
    02:00 +4°C° 0 mm 3 m/s 749 mmHg 72%
    03:00 +4°C° 0 mm 4 m/s 749 mmHg 71%
    04:00 +4°C° 0 mm 4 m/s 749 mmHg 71%
    05:00 +3°C° 0 mm 5 m/s 749 mmHg 71%
    06:00 +6°C° 0 mm 5 m/s 749 mmHg 67%
    07:00 +7°C° 0 mm 5 m/s 749 mmHg 62%
    08:00 +8°C° 0 mm 5 m/s 749 mmHg 58%
    09:00 +9°C° 0 mm 5 m/s 749 mmHg 54%
    10:00 +10°C° 0 mm 5 m/s 749 mmHg 51%
    11:00 +12°C° 0 mm 4 m/s 750 mmHg 48%
    12:00 +12°C° 0 mm 4 m/s 750 mmHg 47%
    13:00 +13°C° 0 mm 4 m/s 749 mmHg 47%
    14:00 +13°C° 0 mm 4 m/s 749 mmHg 47%
    15:00 +13°C° 0 mm 3 m/s 749 mmHg 48%
    16:00 +13°C° 0 mm 3 m/s 749 mmHg 49%
    17:00 +13°C° 0 mm 3 m/s 749 mmHg 49%
    18:00 +11°C° 0 mm 3 m/s 749 mmHg 55%
    19:00 +10°C° 0 mm 2 m/s 749 mmHg 61%
    20:00 +8°C° 0 mm 2 m/s 750 mmHg 67%
    21:00 +7°C° 0 mm 2 m/s 750 mmHg 69%
    22:00 +6°C° 0 mm 2 m/s 750 mmHg 72%
    23:00 +5°C° 0 mm 2 m/s 750 mmHg 74%

    2 Juin, Mardi

    Heure Température Précipitation Vent Pression Humidité
    00:00 +5°C° 0 mm 2 m/s 750 mmHg 78%
    01:00 +4°C° 0 mm 2 m/s 750 mmHg 83%
    02:00 +4°C° 0 mm 2 m/s 750 mmHg 87%
    03:00 +4°C° 0 mm 2 m/s 750 mmHg 84%
    04:00 +5°C° 0 mm 2 m/s 750 mmHg 81%
    05:00 +6°C° 0 mm 2 m/s 750 mmHg 77%
    06:00 +8°C° 0 mm 2 m/s 750 mmHg 69%
    07:00 +10°C° 0 mm 2 m/s 750 mmHg 61%
    08:00 +13°C° 0 mm 2 m/s 750 mmHg 53%
    09:00 +13°C° 0 mm 2 m/s 750 mmHg 51%
    10:00 +14°C° 0 mm 2 m/s 750 mmHg 49%
    11:00 +14°C° 0 mm 3 m/s 750 mmHg 47%
    12:00 +14°C° 0 mm 3 m/s 750 mmHg 46%
    13:00 +16°C° 0 mm 3 m/s 749 mmHg 44%
    14:00 +16°C° 0 mm 3 m/s 749 mmHg 43%
    15:00 +16°C° 0 mm 3 m/s 749 mmHg 45%
    16:00 +16°C° 0 mm 3 m/s 749 mmHg 47%
    17:00 +15°C° 0 mm 2 m/s 749 mmHg 49%
    18:00 +14°C° 0 mm 2 m/s 749 mmHg 58%
    19:00 +12°C° 0 mm 2 m/s 749 mmHg 66%
    20:00 +10°C° 0 mm 1 m/s 749 mmHg 75%
    21:00 +9°C° 0 mm 1 m/s 749 mmHg 78%
    22:00 +8°C° 0 mm 1 m/s 749 mmHg 82%
    23:00 +6°C° 0 mm 1 m/s 749 mmHg 86%

    3 Juin, Mercredi

    Heure Température Précipitation Vent Pression Humidité
    00:00 +6°C° 0 mm 1 m/s 749 mmHg 87%
    01:00 +6°C° 0 mm 1 m/s 749 mmHg 89%
    02:00 +5°C° 0 mm 1 m/s 749 mmHg 90%
    03:00 +6°C° 0 mm 1 m/s 749 mmHg 86%
    04:00 +6°C° 0 mm 2 m/s 748 mmHg 81%
    05:00 +7°C° 0 mm 2 m/s 748 mmHg 77%
    06:00 +9°C° 0 mm 2 m/s 748 mmHg 69%
    07:00 +12°C° 0 mm 3 m/s 748 mmHg 62%
    08:00 +14°C° 0 mm 3 m/s 748 mmHg 54%
    09:00 +16°C° 0 mm 3 m/s 748 mmHg 52%
    10:00 +17°C° 0 mm 3 m/s 748 mmHg 49%
    11:00 +18°C° 0 mm 3 m/s 747 mmHg 47%
    12:00 +18°C° 0 mm 3 m/s 747 mmHg 46%
    13:00 +19°C° 0 mm 3 m/s 747 mmHg 46%
    14:00 +19°C° 0 mm 3 m/s 746 mmHg 46%
    15:00 +19°C° 0 mm 3 m/s 746 mmHg 49%
    16:00 +18°C° 0 mm 3 m/s 746 mmHg 52%
    17:00 +18°C° 0 mm 3 m/s 746 mmHg 55%
    18:00 +17°C° 0 mm 3 m/s 746 mmHg 65%
    19:00 +15°C° 0 mm 2 m/s 746 mmHg 74%
    20:00 +13°C° 0 mm 2 m/s 746 mmHg 84%
    21:00 +12°C° 0 mm 2 m/s 746 mmHg 88%
    22:00 +10°C° 0 mm 2 m/s 746 mmHg 92%
    23:00 +10°C° 0 mm 2 m/s 746 mmHg 96%
    Voir plus